Fort Gibson Lake Weather Center

Moon Phase Calendar



Fort Gibson Lake Water Level
Online Cameras

 


      

Current Conditions in Wagoner
2/26/2024 4:45:35 AM

43°F
Feels Like 40
Clear
Humidity
78%
Pressure
29.83"
Wind
5.4 mph (SSE)
Dew Point
37°F
UV Index
0/10 (Low)
Visibility
6 mi

Hourly Forecast

Date & Time Mon, Feb 26
4:00 AM
Mon, Feb 26
5:00 AM
Mon, Feb 26
6:00 AM
Mon, Feb 26
7:00 AM
Mon, Feb 26
8:00 AM
Mon, Feb 26
9:00 AM
Mon, Feb 26
10:00 AM
Mon, Feb 26
11:00 AM
Mon, Feb 26
12:00 PM
Mon, Feb 26
1:00 PM
Mon, Feb 26
2:00 PM
Mon, Feb 26
3:00 PM
Mon, Feb 26
4:00 PM
Mon, Feb 26
5:00 PM
Mon, Feb 26
6:00 PM
Mon, Feb 26
7:00 PM
Mon, Feb 26
8:00 PM
Mon, Feb 26
9:00 PM
Mon, Feb 26
10:00 PM
Mon, Feb 26
11:00 PM
Tue, Feb 27
12:00 AM
Tue, Feb 27
1:00 AM
Tue, Feb 27
2:00 AM
Tue, Feb 27
3:00 AM
Tue, Feb 27
4:00 AM
Tue, Feb 27
5:00 AM
Tue, Feb 27
6:00 AM
Tue, Feb 27
7:00 AM
Tue, Feb 27
8:00 AM
Tue, Feb 27
9:00 AM
Tue, Feb 27
10:00 AM
Tue, Feb 27
11:00 AM
Tue, Feb 27
12:00 PM
Tue, Feb 27
1:00 PM
Tue, Feb 27
2:00 PM
Tue, Feb 27
3:00 PM
Tue, Feb 27
4:00 PM
Tue, Feb 27
5:00 PM
Tue, Feb 27
6:00 PM
Tue, Feb 27
7:00 PM
Tue, Feb 27
8:00 PM
Tue, Feb 27
9:00 PM
Tue, Feb 27
10:00 PM
Tue, Feb 27
11:00 PM
Wed, Feb 28
12:00 AM
Wed, Feb 28
1:00 AM
Wed, Feb 28
2:00 AM
Wed, Feb 28
3:00 AM
Condition
Clear

Clear

Clear

Clear

Clear

Clear

Clouds

Clouds

Clouds

Clouds

Clouds

Clouds

Clouds

Clouds

Clouds

Clouds

Clouds

Clouds

Clouds

Clouds

Clouds

Clouds

Clouds

Clouds

Clouds

Clouds

Clouds

Clouds

Clouds

Clouds

Clouds

Clouds

Clouds

Clouds

Clouds

Clouds

Clouds

Clouds

Clouds

Clouds

Clouds

Clouds

Clouds

Clouds

Clouds

Clouds

Clouds

Clouds
Temperature 45°F43°F45°F47°F51°F58°F67°F71°F75°F77°F79°F80°F80°F78°F74°F72°F68°F67°F67°F70°F70°F71°F70°F70°F69°F68°F67°F67°F68°F72°F75°F79°F81°F83°F84°F83°F81°F79°F77°F76°F74°F71°F58°F50°F43°F39°F37°F36°F
Feels Like 43°F40°F42°F44°F49°F56°F66°F70°F74°F76°F79°F79°F79°F77°F72°F71°F66°F65°F66°F69°F69°F70°F69°F70°F69°F68°F67°F66°F68°F72°F75°F78°F80°F81°F82°F81°F80°F79°F76°F74°F72°F70°F56°F43°F35°F30°F27°F26°F
Cloudiness 8%8%8%7%7%8%22%34%41%100%100%100%98%98%86%89%78%85%89%91%92%100%99%99%92%94%95%94%81%81%86%89%91%100%100%100%100%100%100%100%100%100%100%100%100%99%100%100%
Visibility 6 mi6 mi6 mi6 mi6 mi6 mi6 mi6 mi6 mi6 mi6 mi6 mi6 mi6 mi6 mi6 mi6 mi6 mi6 mi6 mi6 mi6 mi6 mi6 mi6 mi6 mi6 mi6 mi6 mi6 mi6 mi6 mi6 mi6 mi6 mi6 mi6 mi6 mi6 mi6 mi6 mi6 mi6 mi6 mi6 mi6 mi6 mi6 mi
Precipitation 0%0%0%0%0%0%0%0%0%0%0%0%0%0%0%0%0%0%0%0%0%0%0%0%0%0%0%0%0%0%0%0%0%0%0%0%0%0%0%0%0%0%0%0%0%0%0%0%
Humidity 77%78%79%82%81%70%60%51%38%29%24%26%28%33%39%39%45%47%47%43%42%46%54%62%62%67%70%74%70%57%46%34%28%26%24%25%26%28%29%31%34%37%47%47%47%49%59%63%
Dew Point 38°F37°F39°F41°F45°F48°F52°F52°F48°F42°F39°F42°F45°F47°F46°F45°F45°F45°F46°F46°F46°F49°F53°F56°F55°F56°F57°F58°F57°F56°F53°F48°F46°F44°F44°F44°F44°F43°F43°F43°F43°F44°F38°F30°F24°F22°F24°F24°F
Pressure 29.83"29.83"29.83"29.83"29.8"29.8"29.77"29.74"29.74"29.71"29.65"29.65"29.62"29.59"29.59"29.62"29.62"29.59"29.62"29.59"29.56"29.56"29.56"29.53"29.53"29.53"29.53"29.53"29.53"29.53"29.53"29.53"29.5"29.47"29.44"29.41"29.44"29.44"29.44"29.44"29.47"29.47"29.62"29.71"29.83"29.91"29.97"30.03"
Wind Speed 4.7 mph5.4 mph5.3 mph6.2 mph7.7 mph10 mph11.5 mph13.3 mph13.4 mph13.5 mph12.9 mph11.7 mph9.8 mph5.5 mph7.7 mph9.5 mph6.3 mph6.4 mph7.6 mph12 mph12.3 mph11.8 mph12 mph12.2 mph12.5 mph12 mph11.7 mph11.5 mph12 mph12.6 mph13.9 mph15.3 mph16 mph16.6 mph17.2 mph17.5 mph17.6 mph15.8 mph14 mph12.7 mph9.8 mph8.6 mph18.3 mph20.1 mph20.7 mph18.9 mph18 mph15.5 mph
Wind
Direction
165°
SSE
161°
SSE
147°
SSE
166°
SSE
169°
S
172°
S
181°
S
191°
S
205°
SSW
220°
SW
223°
SW
232°
SW
221°
SW
206°
SSW
215°
SW
230°
SW
206°
SSW
180°
S
181°
S
190°
S
195°
SSW
198°
SSW
200°
SSW
200°
SSW
197°
SSW
200°
SSW
198°
SSW
190°
S
192°
SSW
198°
SSW
202°
SSW
219°
SW
222°
SW
223°
SW
232°
SW
226°
SW
227°
SW
231°
SW
231°
SW
220°
SW
217°
SW
216°
SW
350°
N
352°
N
346°
NNW
350°
N
352°
N
349°
N

Daily Forecast

Date High Low Precip. Humidity
Today
Feb 26

Clouds
80 °F
43 °F
0%
38%
Tuesday
Feb 27

Clouds
84 °F
50 °F
0%
28%
Wednesday
Feb 28

Clouds
47 °F
32 °F
0%
25%
Thursday
Feb 29

Rain
47 °F
37 °F
100%
35%
Friday
Mar 1

Clouds
62 °F
35 °F
35%
65%
Saturday
Mar 2

Clear
80 °F
53 °F
0%
42%
Sunday
Mar 3

Rain
79 °F
60 °F
31%
53%
Monday
Mar 4

Rain
67 °F
47 °F
51%
37%
Tuesday
Mar 5

Clear
55 °F
35 °F
0%
20%
Wednesday
Mar 6

Clouds
58 °F
41 °F
0%
29%
Thursday
Mar 7

Rain
70 °F
47 °F
24%
54%
Friday
Mar 8

Rain
64 °F
45 °F
100%
89%
Saturday
Mar 9

Rain
45 °F
41 °F
43%
76%
Sunday
Mar 10

Clear
54 °F
31 °F
0%
40%
Monday
Mar 11

Clear
59 °F
35 °F
0%
35%
Tuesday
Mar 12

Clouds
66 °F
41 °F
0%
38%

Temperature 8-14 Day Outlook



Precipitation 8-14 Day Outlook




Quick Links
Fort Gibson Lake News
Fort Gibson Lake Photos
Fort Gibson Lake Videos




About Us
Contact Us
Site Map
Search Site
Advertise With Us
   
FortGibson.USLakes.info
THE FORT GIBSON LAKE WEBSITE

Copyright 2024, Lakes Online
Privacy    |    Legal